Location: Bottens
(46.6171°N, 6.6605°E)
Time: 20:04:13
(UTC+00:00)

DELTA 2 R/B (1) - Pass Details

Date: 20 June 2021
Orbit: 789 x 803 km, 39.6° (Epoch: 02 August)

Event Time Altitude Azimuth Distance (km) Brightness Sun altitude
Exits shadow 00:16:55 29° 152° (SSE) 1,398 4.4 -19.3°
Drops below altitude 10° 00:21:11 10° 103° (ESE) 2,349 6.0 -19.2°
Sets 00:23:55 0° 93° (E) 3,281 6.9 -19.1°
